FW8634 Weather Reports


time (UTC)temp
C
wind
direction
speed
KPH
gust
KPH
rain 1hr
cm
rain 24hr
cm
rain mn
cm
humidity
%
barometer
mb
20260508210042 20 352 4.8 12.9 0.00 0.00 0.00 54 1014.5
20260508204540 20 56 4.8 14.5 0.00 0.00 0.00 54 1014.7
20260508203039 20 345 3.2 11.3 0.00 0.00 0.00 51 1014.7
20260508201544 20 32 6.4 19.3 0.00 0.00 0.00 53 1015.0
20260508200052 20 81 6.4 17.7 0.00 0.00 0.00 52 1015.3
20260508194540 20 25 3.2 20.9 0.00 0.00 0.00 48 1015.3
20260508193051 20 70 6.4 22.5 0.00 0.00 0.00 48 1015.7
20260508191538 20 65 11.3 19.3 0.00 0.00 0.00 47 1016.0
20260508190049 20 19 8.0 20.9 0.00 0.00 0.00 48 1016.2
20260508184542 20 314 8.0 27.4 0.00 0.00 0.00 46 1016.3
20260508183040 19 25 9.7 16.1 0.00 0.00 0.00 48 1016.6
20260508181539 18 58 14.5 30.6 0.00 0.00 0.00 50 1016.6
20260508180039 19 359 8.0 20.9 0.00 0.00 0.00 49 1017.1
20260508174543 18 20 6.4 20.9 0.00 0.00 0.00 50 1017.1
20260508173044 18 88 9.7 20.9 0.00 0.00 0.00 50 1017.3
20260508171550 18 350 11.3 19.3 0.00 0.00 0.00 51 1017.5
20260508170043 18 307 3.2 11.3 0.00 0.00 0.00 53 1017.9
20260508164540 18 12 1.6 14.5 0.00 0.00 0.00 52 1018.0
20260508163045 18 13 8.0 12.9 0.00 0.00 0.00 49 1018.1
20260508161549 18 90 1.6 12.9 0.00 0.00 0.00 51 1018.2
20260508160041 18 334 6.4 22.5 0.00 0.00 0.00 51 1018.4
20260508154550 18 81 1.6 16.1 0.00 0.00 0.00 52 1018.8
20260508153039 17 45 4.8 17.7 0.00 0.00 0.00 52 1018.8
20260508151545 18 340 3.2 11.3 0.00 0.00 0.00 52 1018.7
20260508150044 17 357 3.2 9.7 0.00 0.00 0.00 54 1018.8
20260508144541 16 0 0.0 4.8 0.00 0.00 0.00 54 1018.9
20260508143040 16 1 1.6 6.4 0.00 0.00 0.00 55 1018.8
20260508141544 16 322 3.2 9.7 0.00 0.00 0.00 54 1019.0
20260508140043 15 0 0.0 6.4 0.00 0.00 0.00 56 1018.9
20260508134543 14 0 0.0 9.7 0.00 0.00 0.00 60 1018.9
20260508133046 13 222 3.2 9.7 0.00 0.00 0.00 63 1019.0
20260508131546 13 303 4.8 9.7 0.00 0.00 0.00 64 1019.0
20260508130056 12 360 1.6 6.4 0.00 0.00 0.00 68 1018.8
20260508124539 12 13 0.0 3.2 0.00 0.08 0.00 72 1018.8
20260508123040 11 347 3.2 9.7 0.00 0.08 0.00 75 1018.8
20260508121547 11 343 1.6 4.8 0.00 0.08 0.00 79 1018.7
20260508120039 11 0 0.0 3.2 0.00 0.08 0.00 83 1018.4
20260508114543 9 0 0.0 1.6 0.00 0.33 0.00 89 1018.1
20260508113045 8 0 0.0 3.2 0.00 0.33 0.00 90 1018.0
20260508111540 8 0 0.0 1.6 0.00 0.33 0.00 91 1017.7
20260508110037 7 27 0.0 1.6 0.00 0.33 0.00 93 1017.4
20260508104611 6 0 0.0 1.6 0.00 0.33 0.00 93 1017.2
20260508103046 6 0 0.0 1.6 0.00 0.33 0.00 93 1016.8
20260508101541 7 0 0.0 1.6 0.00 0.33 0.00 92 1016.7
20260508100047 7 0 0.0 0.0 0.00 0.33 0.00 91 1016.5
20260508094546 7 0 0.0 6.4 0.00 0.33 0.00 90 1016.5
20260508093041 7 34 1.6 3.2 0.00 0.33 0.00 90 1016.6
20260508091550 8 0 0.0 1.6 0.00 0.33 0.00 88 1016.4
20260508090103 8 0 0.0 1.6 0.00 0.33 0.00 86 1016.5
20260508084548 9 0 0.0 0.0 0.00 0.38 0.00 84 1016.3
20260508083104 10 9 0.0 8.0 0.00 0.38 0.00 83 1016.2
20260508081556 11 227 4.8 8.0 0.00 0.38 0.00 79 1016.1
20260508080101 11 0 1.6 8.0 0.00 0.38 0.00 77 1015.9
20260508074544 11 265 3.2 9.7 0.00 0.38 0.00 76 1015.8
20260508073042 12 208 8.0 17.7 0.00 0.38 0.00 76 1015.6
20260508071540 12 227 11.3 20.9 0.00 0.38 0.00 74 1015.6
20260508070120 12 220 12.9 19.3 0.00 0.38 0.00 73 1015.4
20260508064542 12 230 12.9 25.7 0.00 0.41 0.00 72 1015.3
20260508063050 12 226 16.1 27.4 0.00 0.41 0.00 73 1015.2
20260508061547 12 225 12.9 19.3 0.00 0.41 0.00 74 1015.0
20260508060049 12 217 9.7 16.1 0.00 0.41 0.00 73 1015.1
20260508054549 12 219 9.7 14.5 0.00 0.53 0.00 74 1015.3
20260508053101 12 229 8.0 16.1 0.00 0.53 0.00 73 1015.4
20260508051542 12 322 4.8 14.5 0.00 0.53 0.00 74 1015.2
20260508050039 12 240 8.0 12.9 0.00 0.53 0.00 74 1015.1
20260508044545 11 231 4.8 9.7 0.00 0.64 0.00 78 1015.1
20260508043057 12 11 0.0 9.7 0.00 0.64 0.00 76 1015.0
20260508041541 12 348 1.6 12.9 0.00 0.64 0.00 76 1015.0
20260508040040 12 242 4.8 14.5 0.00 0.64 0.00 73 1015.1
20260508034545 13 346 6.4 16.1 0.00 0.64 0.64 73 1015.1
20260508033118 13 227 8.0 19.3 0.00 0.64 0.64 72 1015.1
20260508031551 13 226 17.7 27.4 0.00 0.64 0.64 72 1015.0
20260508030050 12 226 11.3 16.1 0.00 0.64 0.64 76 1014.9
20260508024556 12 321 8.0 11.3 0.00 0.71 0.64 75 1014.8
20260508023046 12 226 8.0 19.3 0.00 0.71 0.64 75 1014.4
20260508021549 12 358 3.2 8.0 0.00 0.71 0.64 75 1014.6
20260508020040 13 0 0.0 8.0 0.00 0.71 0.64 70 1014.4
20260508014540 13 255 3.2 9.7 0.00 0.81 0.64 70 1014.0
20260508013039 13 236 8.0 17.7 0.00 0.81 0.64 70 1013.9
20260508011545 13 211 14.5 27.4 0.00 0.81 0.64 70 1013.5
20260508010043 13 231 14.5 27.4 0.00 0.81 0.64 69 1013.3
20260508004541 13 219 19.3 30.6 0.00 1.07 0.64 68 1013.0
20260508003041 13 217 12.9 24.1 0.00 1.07 0.64 69 1012.7
20260508001538 14 215 19.3 30.6 0.00 1.07 0.64 68 1012.6
20260508000048 15 229 17.7 32.2 0.00 1.07 0.64 67 1012.4
20260507234544 15 209 22.5 37.0 0.00 1.14 0.64 66 1012.4
20260507233042 15 214 24.1 40.2 0.00 1.14 0.64 67 1012.0
20260507231550 15 237 20.9 43.5 0.00 1.14 0.64 69 1012.0
20260507230059 16 160 24.1 43.5 0.00 1.14 0.64 68 1011.9
20260507224546 16 195 27.4 41.8 0.00 1.19 0.64 68 1011.5
20260507223043 16 190 20.9 41.8 0.00 1.19 0.64 68 1011.3
20260507221542 17 233 20.9 40.2 0.00 1.19 0.64 69 1011.0
20260507220042 18 173 20.9 33.8 0.00 1.19 0.64 67 1011.1
20260507214551 18 345 16.1 38.6 0.00 1.19 0.64 67 1010.5
20260507213057 20 216 12.9 29.0 0.00 1.19 0.64 66 1009.9
20260507211546 20 191 19.3 33.8 0.00 1.19 0.64 66 1009.7